| time (UTC) | temp C | wind direction | speed KPH | gust KPH | rain 1hr cm | rain 24hr cm | rain mn cm | humidity % | barometer mb |
| 20260906181216 | 26 | 113 | 22.5 | 33.8 | 0.00 | 0.00 | 0.00 | 32 | 1019.9 |
| 20260906180216 | 25 | 131 | 17.7 | 30.6 | 0.00 | 0.00 | 0.00 | 32 | 1020.3 |
| 20260906175216 | 25 | 147 | 12.9 | 25.7 | 0.00 | 0.00 | 0.00 | 31 | 1020.1 |
| 20260906174236 | 25 | 135 | 19.3 | 32.2 | 0.00 | 0.00 | 0.00 | 30 | 1020.6 |
| 20260906173236 | 25 | 142 | 16.1 | 20.9 | 0.00 | 0.00 | 0.00 | 30 | 1020.6 |
| 20260906172216 | 25 | 151 | 14.5 | 22.5 | 0.00 | 0.00 | 0.00 | 31 | 1020.9 |
| 20260906171216 | 25 | 150 | 16.1 | 24.1 | 0.00 | 0.00 | 0.00 | 31 | 1020.6 |
| 20260906170216 | 24 | 154 | 17.7 | 22.5 | 0.00 | 0.00 | 0.00 | 33 | 1020.5 |
| 20260906165216 | 24 | 165 | 12.9 | 17.7 | 0.00 | 0.00 | 0.00 | 33 | 1020.8 |
| 20260906164236 | 24 | 154 | 11.3 | 22.5 | 0.00 | 0.00 | 0.00 | 33 | 1020.7 |
| 20260906163236 | 23 | 160 | 14.5 | 19.3 | 0.00 | 0.00 | 0.00 | 34 | 1020.7 |
| 20260906162215 | 23 | 98 | 16.1 | 20.9 | 0.00 | 0.00 | 0.00 | 34 | 1020.8 |
| 20260906161216 | 23 | 118 | 4.8 | 11.3 | 0.00 | 0.00 | 0.00 | 36 | 1020.5 |
| 20260906160215 | 22 | 119 | 8.0 | 19.3 | 0.00 | 0.00 | 0.00 | 36 | 1020.6 |
| 20260906155215 | 22 | 106 | 9.7 | 16.1 | 0.00 | 0.00 | 0.00 | 37 | 1020.7 |
| 20260906154216 | 22 | 116 | 11.3 | 17.7 | 0.00 | 0.00 | 0.00 | 38 | 1020.9 |
| 20260906153215 | 22 | 143 | 6.4 | 16.1 | 0.00 | 0.00 | 0.00 | 42 | 1021.1 |
| 20260906152215 | 21 | 94 | 11.3 | 14.5 | 0.00 | 0.00 | 0.00 | 44 | 1020.9 |
| 20260906151215 | 21 | 100 | 6.4 | 14.5 | 0.00 | 0.00 | 0.00 | 46 | 1021.2 |
| 20260906150215 | 21 | 87 | 6.4 | 12.9 | 0.00 | 0.00 | 0.00 | 44 | 1021.2 |
| 20260906145215 | 21 | 92 | 4.8 | 6.4 | 0.00 | 0.00 | 0.00 | 41 | 1021.2 |
| 20260906144215 | 22 | 72 | 6.4 | 11.3 | 0.00 | 0.00 | 0.00 | 35 | 1021.4 |
| 20260906143215 | 22 | 98 | 6.4 | 9.7 | 0.00 | 0.00 | 0.00 | 34 | 1021.7 |
| 20260906142215 | 21 | 0.0 | 1.6 | 0.00 | 0.00 | 0.00 | 36 | 1021.4 | |
| 20260906141215 | 21 | 0.0 | 0.0 | 0.00 | 0.00 | 0.00 | 36 | 1021.6 | |
| 20260906140216 | 21 | 100 | 0.0 | 1.6 | 0.00 | 0.00 | 0.00 | 37 | 1021.2 |
| 20260906135215 | 20 | 107 | 1.6 | 3.2 | 0.00 | 0.00 | 0.00 | 38 | 1021.0 |
| 20260906134215 | 18 | 355 | 1.6 | 3.2 | 0.00 | 0.00 | 0.00 | 39 | 1020.7 |
| 20260906133235 | 18 | 355 | 1.6 | 3.2 | 0.00 | 0.00 | 0.00 | 40 | 1020.7 |
| 20260906132215 | 18 | 355 | 1.6 | 3.2 | 0.00 | 0.00 | 0.00 | 40 | 1020.6 |
| 20260906131215 | 18 | 0.0 | 0.0 | 0.00 | 0.00 | 0.00 | 41 | 1020.4 | |
| 20260906130235 | 17 | 355 | 1.6 | 3.2 | 0.00 | 0.00 | 0.00 | 41 | 1020.1 |
| 20260906125215 | 17 | 355 | 1.6 | 3.2 | 0.00 | 0.00 | 0.00 | 42 | 1020.2 |
| 20260906124236 | 17 | 355 | 3.2 | 6.4 | 0.00 | 0.00 | 0.00 | 42 | 1020.2 |
| 20260906123235 | 17 | 355 | 3.2 | 4.8 | 0.00 | 0.00 | 0.00 | 43 | 1020.2 |
| 20260906122215 | 17 | 355 | 1.6 | 3.2 | 0.00 | 0.00 | 0.00 | 42 | 1020.2 |
| 20260906121235 | 17 | 355 | 6.4 | 8.0 | 0.00 | 0.00 | 0.00 | 43 | 1020.2 |
| 20260906120235 | 18 | 355 | 4.8 | 6.4 | 0.00 | 0.00 | 0.00 | 43 | 1020.5 |
| 20260906115215 | 17 | 355 | 3.2 | 4.8 | 0.00 | 0.00 | 0.00 | 44 | 1020.2 |
| 20260906114215 | 17 | 355 | 6.4 | 8.0 | 0.00 | 0.00 | 0.00 | 45 | 1020.4 |
| 20260906113215 | 17 | 355 | 4.8 | 8.0 | 0.00 | 0.00 | 0.00 | 44 | 1020.4 |
| 20260906112215 | 17 | 355 | 8.0 | 9.7 | 0.00 | 0.00 | 0.00 | 45 | 1020.4 |
| 20260906111215 | 17 | 355 | 4.8 | 6.4 | 0.00 | 0.00 | 0.00 | 45 | 1020.4 |
| 20260906110235 | 17 | 355 | 4.8 | 8.0 | 0.00 | 0.00 | 0.00 | 46 | 1020.3 |
| 20260906105215 | 17 | 355 | 4.8 | 6.4 | 0.00 | 0.00 | 0.00 | 46 | 1020.4 |
| 20260906104215 | 17 | 331 | 6.4 | 8.0 | 0.00 | 0.00 | 0.00 | 47 | 1020.1 |
| 20260906103215 | 17 | 331 | 6.4 | 8.0 | 0.00 | 0.00 | 0.00 | 46 | 1020.0 |
| 20260906102215 | 17 | 331 | 4.8 | 6.4 | 0.00 | 0.00 | 0.00 | 47 | 1019.9 |
| 20260906101217 | 17 | 331 | 0.0 | 1.6 | 0.00 | 0.00 | 0.00 | 47 | 1019.8 |
| 20260906100237 | 17 | 331 | 4.8 | 6.4 | 0.00 | 0.00 | 0.00 | 45 | 1019.7 |
| 20260906095237 | 18 | 144 | 4.8 | 6.4 | 0.00 | 0.00 | 0.00 | 43 | 1020.0 |
| 20260906094217 | 19 | 144 | 1.6 | 1.6 | 0.00 | 0.00 | 0.00 | 41 | 1019.9 |
| 20260906093217 | 20 | 144 | 1.6 | 3.2 | 0.00 | 0.00 | 0.00 | 40 | 1019.9 |
| 20260906092217 | 18 | 306 | 0.0 | 3.2 | 0.00 | 0.00 | 0.00 | 41 | 1019.6 |
| 20260906091237 | 18 | 306 | 3.2 | 4.8 | 0.00 | 0.00 | 0.00 | 43 | 1019.5 |
| 20260906090217 | 18 | 41 | 3.2 | 4.8 | 0.00 | 0.00 | 0.00 | 43 | 1019.5 |
| 20260906085217 | 19 | 41 | 1.6 | 3.2 | 0.00 | 0.00 | 0.00 | 41 | 1019.8 |
| 20260906084217 | 19 | 0 | 3.2 | 4.8 | 0.00 | 0.00 | 0.00 | 40 | 1019.2 |
| 20260906083237 | 19 | 37 | 1.6 | 4.8 | 0.00 | 0.00 | 0.00 | 41 | 1019.4 |
| 20260906082216 | 20 | 57 | 4.8 | 6.4 | 0.00 | 0.00 | 0.00 | 40 | 1019.5 |
| 20260906081218 | 20 | 57 | 3.2 | 6.4 | 0.00 | 0.00 | 0.00 | 39 | 1019.6 |
| 20260906080216 | 20 | 349 | 6.4 | 8.0 | 0.00 | 0.00 | 0.00 | 36 | 1019.5 |
| 20260906075217 | 20 | 249 | 3.2 | 4.8 | 0.00 | 0.00 | 0.00 | 34 | 1019.8 |
| 20260906074216 | 21 | 54 | 3.2 | 4.8 | 0.00 | 0.00 | 0.00 | 29 | 1019.6 |
| 20260906073216 | 21 | 7 | 4.8 | 8.0 | 0.00 | 0.00 | 0.00 | 28 | 1019.3 |
| 20260906072216 | 20 | 68 | 4.8 | 6.4 | 0.00 | 0.00 | 0.00 | 29 | 1019.1 |
| 20260906071216 | 20 | 40 | 3.2 | 3.2 | 0.00 | 0.00 | 0.00 | 29 | 1018.9 |
| 20260906070216 | 20 | 40 | 1.6 | 4.8 | 0.00 | 0.00 | 0.00 | 29 | 1019.0 |
| 20260906065216 | 20 | 173 | 1.6 | 3.2 | 0.00 | 0.00 | 0.00 | 29 | 1018.9 |
| 20260906064236 | 20 | 173 | 3.2 | 8.0 | 0.00 | 0.00 | 0.00 | 29 | 1018.8 |
| 20260906063216 | 20 | 173 | 1.6 | 1.6 | 0.00 | 0.00 | 0.00 | 29 | 1018.8 |
| 20260906062236 | 20 | 224 | 3.2 | 8.0 | 0.00 | 0.00 | 0.00 | 28 | 1018.7 |
| 20260906061257 | 21 | 249 | 4.8 | 11.3 | 0.00 | 0.00 | 0.00 | 27 | 1018.6 |
| 20260906060216 | 22 | 249 | 1.6 | 3.2 | 0.00 | 0.00 | 0.00 | 26 | 1018.7 |
| 20260906055216 | 22 | 0.0 | 1.6 | 0.00 | 0.00 | 0.00 | 25 | 1018.9 | |
| 20260906054235 | 23 | 204 | 6.4 | 11.3 | 0.00 | 0.00 | 0.00 | 24 | 1018.9 |
| 20260906053215 | 23 | 202 | 8.0 | 12.9 | 0.00 | 0.00 | 0.00 | 23 | 1019.1 |
| 20260906052216 | 23 | 196 | 9.7 | 22.5 | 0.00 | 0.00 | 0.00 | 22 | 1019.1 |
| 20260906051215 | 24 | 190 | 14.5 | 20.9 | 0.00 | 0.00 | 0.00 | 21 | 1019.2 |
| 20260906050255 | 24 | 202 | 16.1 | 24.1 | 0.00 | 0.00 | 0.00 | 20 | 1019.2 |
| 20260906045215 | 24 | 185 | 14.5 | 27.4 | 0.00 | 0.00 | 0.00 | 20 | 1019.4 |
| 20260906044235 | 24 | 200 | 6.4 | 17.7 | 0.00 | 0.00 | 0.00 | 20 | 1019.0 |
| 20260906043215 | 24 | 208 | 11.3 | 17.7 | 0.00 | 0.00 | 0.00 | 21 | 1018.6 |
| 20260906042215 | 23 | 196 | 4.8 | 8.0 | 0.00 | 0.00 | 0.00 | 21 | 1018.6 |
| 20260906041215 | 23 | 244 | 1.6 | 6.4 | 0.00 | 0.00 | 0.00 | 21 | 1018.2 |
| 20260906040215 | 23 | 236 | 1.6 | 4.8 | 0.00 | 0.00 | 0.00 | 21 | 1018.2 |
| 20260906035235 | 23 | 206 | 4.8 | 9.7 | 0.00 | 0.00 | 0.00 | 20 | 1018.1 |
| 20260906034215 | 23 | 237 | 6.4 | 8.0 | 0.00 | 0.00 | 0.00 | 20 | 1017.9 |
| 20260906033215 | 24 | 198 | 3.2 | 8.0 | 0.00 | 0.00 | 0.00 | 20 | 1018.2 |
| 20260906032215 | 24 | 196 | 8.0 | 12.9 | 0.00 | 0.00 | 0.00 | 20 | 1018.1 |
| 20260906031215 | 24 | 194 | 3.2 | 14.5 | 0.00 | 0.00 | 0.00 | 21 | 1018.0 |
| 20260906030215 | 25 | 172 | 1.6 | 3.2 | 0.00 | 0.00 | 0.00 | 20 | 1017.9 |
| 20260906025215 | 25 | 192 | 1.6 | 6.4 | 0.00 | 0.00 | 0.00 | 20 | 1017.8 |
| 20260906024215 | 25 | 178 | 4.8 | 14.5 | 0.00 | 0.00 | 0.00 | 19 | 1017.2 |
| 20260906023215 | 25 | 177 | 4.8 | 12.9 | 0.00 | 0.00 | 0.00 | 19 | 1017.1 |
| 20260906022235 | 26 | 166 | 8.0 | 9.7 | 0.00 | 0.00 | 0.00 | 19 | 1017.3 |
| 20260906021215 | 26 | 173 | 4.8 | 11.3 | 0.00 | 0.00 | 0.00 | 20 | 1016.8 |
| 20260906020235 | 26 | 183 | 6.4 | 12.9 | 0.00 | 0.00 | 0.00 | 19 | 1016.8 |
| 20260906015215 | 27 | 184 | 6.4 | 11.3 | 0.00 | 0.00 | 0.00 | 19 | 1016.8 |
| 20260906014215 | 27 | 199 | 11.3 | 14.5 | 0.00 | 0.00 | 0.00 | 18 | 1016.4 |
| 20260906013215 | 27 | 196 | 8.0 | 19.3 | 0.00 | 0.00 | 0.00 | 18 | 1016.8 |
| 20260906012215 | 27 | 201 | 11.3 | 25.7 | 0.00 | 0.00 | 0.00 | 17 | 1016.8 |
| 20260906011215 | 28 | 199 | 12.9 | 22.5 | 0.00 | 0.00 | 0.00 | 17 | 1017.5 |
| 20260906010215 | 28 | 204 | 17.7 | 25.7 | 0.00 | 0.00 | 0.00 | 16 | 1017.5 |
| 20260906005215 | 28 | 202 | 19.3 | 30.6 | 0.00 | 0.00 | 0.00 | 16 | 1017.4 |
| 20260906004215 | 29 | 206 | 12.9 | 24.1 | 0.00 | 0.00 | 0.00 | 16 | 1017.7 |
| 20260906003217 | 29 | 213 | 20.9 | 30.6 | 0.00 | 0.00 | 0.00 | 17 | 1017.7 |
| 20260906002215 | 29 | 177 | 12.9 | 29.0 | 0.00 | 0.00 | 0.00 | 17 | 1017.8 |
| 20260906001237 | 29 | 187 | 14.5 | 22.5 | 0.00 | 0.00 | 0.00 | 17 | 1017.7 |
| 20260906000219 | 29 | 218 | 11.3 | 20.9 | 0.00 | 0.00 | 0.00 | 16 | 1017.7 |
| 20260905235217 | 29 | 235 | 22.5 | 33.8 | 0.00 | 0.00 | 0.00 | 16 | 1017.7 |
| 20260905234237 | 29 | 197 | 22.5 | 32.2 | 0.00 | 0.00 | 0.00 | 15 | 1018.2 |
| 20260905233257 | 29 | 201 | 11.3 | 22.5 | 0.00 | 0.00 | 0.00 | 16 | 1018.2 |
| 20260905232217 | 30 | 193 | 22.5 | 30.6 | 0.00 | 0.00 | 0.00 | 15 | 1018.4 |
| 20260905231217 | 29 | 176 | 11.3 | 17.7 | 0.00 | 0.00 | 0.00 | 16 | 1018.4 |
| 20260905230237 | 29 | 200 | 14.5 | 32.2 | 0.00 | 0.00 | 0.00 | 15 | 1018.6 |
| 20260905225217 | 29 | 203 | 12.9 | 27.4 | 0.00 | 0.00 | 0.00 | 16 | 1018.6 |
| 20260905224216 | 30 | 205 | 19.3 | 37.0 | 0.00 | 0.00 | 0.00 | 15 | 1019.0 |
| 20260905223216 | 29 | 209 | 19.3 | 32.2 | 0.00 | 0.00 | 0.00 | 15 | 1019.1 |
| 20260905222217 | 29 | 227 | 14.5 | 27.4 | 0.00 | 0.00 | 0.00 | 14 | 1019.1 |
| 20260905221216 | 29 | 223 | 16.1 | 27.4 | 0.00 | 0.00 | 0.00 | 14 | 1019.0 |
| 20260905220216 | 29 | 196 | 14.5 | 22.5 | 0.00 | 0.00 | 0.00 | 14 | 1019.1 |
| 20260905215216 | 29 | 198 | 16.1 | 27.4 | 0.00 | 0.00 | 0.00 | 13 | 1019.5 |
| 20260905214216 | 29 | 224 | 17.7 | 43.5 | 0.00 | 0.00 | 0.00 | 13 | 1019.7 |
| 20260905213217 | 29 | 204 | 14.5 | 25.7 | 0.00 | 0.00 | 0.00 | 14 | 1019.6 |
| 20260905212236 | 28 | 166 | 14.5 | 24.1 | 0.00 | 0.00 | 0.00 | 13 | 1019.6 |
| 20260905211216 | 28 | 154 | 11.3 | 25.7 | 0.00 | 0.00 | 0.00 | 21 | 1019.9 |
| 20260905210216 | 28 | 155 | 12.9 | 22.5 | 0.00 | 0.00 | 0.00 | 21 | 1019.9 |
| 20260905205216 | 28 | 159 | 9.7 | 16.1 | 0.00 | 0.00 | 0.00 | 22 | 1020.0 |
| 20260905204236 | 27 | 167 | 14.5 | 20.9 | 0.00 | 0.00 | 0.00 | 19 | 1019.4 |
| 20260905203216 | 27 | 183 | 9.7 | 17.7 | 0.00 | 0.00 | 0.00 | 23 | 1020.0 |
| 20260905202216 | 27 | 158 | 11.3 | 24.1 | 0.00 | 0.00 | 0.00 | 23 | 1019.9 |
| 20260905201216 | 27 | 158 | 14.5 | 22.5 | 0.00 | 0.00 | 0.00 | 23 | 1020.1 |
| 20260905200216 | 27 | 107 | 8.0 | 19.3 | 0.00 | 0.00 | 0.00 | 23 | 1020.1 |
| 20260905195236 | 27 | 162 | 11.3 | 29.0 | 0.00 | 0.00 | 0.00 | 23 | 1020.0 |
| 20260905194216 | 27 | 151 | 12.9 | 22.5 | 0.00 | 0.00 | 0.00 | 25 | 1020.3 |
| 20260905193216 | 26 | 104 | 12.9 | 25.7 | 0.00 | 0.00 | 0.00 | 25 | 1020.0 |
| 20260905192236 | 26 | 118 | 12.9 | 27.4 | 0.00 | 0.00 | 0.00 | 25 | 1020.2 |
| 20260905191216 | 26 | 93 | 24.1 | 40.2 | 0.00 | 0.00 | 0.00 | 26 | 1020.4 |
| 20260905190236 | 26 | 149 | 16.1 | 30.6 | 0.00 | 0.00 | 0.00 | 24 | 1020.6 |
| 20260905185216 | 26 | 142 | 20.9 | 29.0 | 0.00 | 0.00 | 0.00 | 25 | 1020.5 |
| 20260905184216 | 26 | 102 | 17.7 | 27.4 | 0.00 | 0.00 | 0.00 | 25 | 1021.1 |
| 20260905183216 | 26 | 135 | 14.5 | 30.6 | 0.00 | 0.00 | 0.00 | 25 | 1021.1 |
| 20260905182216 | 25 | 168 | 11.3 | 19.3 | 0.00 | 0.00 | 0.00 | 26 | 1021.2 |